This is the latest recevied weather packets stored in our database for station/object SP1BMW-13. If no packets are shown the sender has not sent any weather packets the latest 10 day(s).
| Time | Temp. | Humidity | Pressure | Rain* | Wind** | Luminosity | Snow |
|---|---|---|---|---|---|---|---|
| 1787676308 | 22.78° C | 42% | 1018 hPa | 0 mm | 0.89 m/s, 77° | 91 W/m² | - |
| 1787676248 | 22.78° C | 42% | 1018 hPa | 0 mm | 0 m/s | 92 W/m² | - |
| 1787676188 | 22.78° C | 41% | 1018 hPa | 0 mm | 1.34 m/s, 47° | 94 W/m² | - |
| 1787676128 | 22.78° C | 41% | 1018.1 hPa | 0 mm | 1.79 m/s, 48° | 96 W/m² | - |
| 1787676068 | 22.78° C | 42% | 1017.8 hPa | 0 mm | 0.89 m/s, 59° | 98 W/m² | - |
| 1787676008 | 22.78° C | 41% | 1018.1 hPa | 0 mm | 0.89 m/s, 124° | 100 W/m² | - |
| 1787675947 | 22.78° C | 40% | 1018.1 hPa | 0 mm | 0.89 m/s, 38° | 102 W/m² | - |
| 1787675888 | 22.78° C | 41% | 1018.2 hPa | 0 mm | 1.79 m/s, 145° | 104 W/m² | - |
| 1787675828 | 23.33° C | 41% | 1018.2 hPa | 0 mm | 0.89 m/s, 53° | 106 W/m² | - |
| 1787675767 | 23.33° C | 41% | 1017.9 hPa | 0 mm | 2.24 m/s, 22° | 108 W/m² | - |
| 1787675708 | 23.33° C | 40% | 1018 hPa | 0 mm | 2.68 m/s, 49° | 110 W/m² | - |
| 1787675648 | 23.33° C | 41% | 1017.9 hPa | 0 mm | 0.89 m/s, 21° | 112 W/m² | - |
| 1787675588 | 23.33° C | 42% | 1017.9 hPa | 0 mm | 1.34 m/s, 37° | 114 W/m² | - |
| 1787675527 | 23.33° C | 43% | 1018 hPa | 0 mm | 0.45 m/s, 26° | 116 W/m² | - |
| 1787675468 | 23.33° C | 42% | 1017.9 hPa | 0 mm | 0 m/s | 118 W/m² | - |
| 1787675407 | 23.33° C | 42% | 1017.8 hPa | 0 mm | 0.89 m/s, 53° | 121 W/m² | - |
| 1787675347 | 23.33° C | 41% | 1018 hPa | 0 mm | 0.45 m/s, 95° | 123 W/m² | - |
| 1787675288 | 23.33° C | 40% | 1017.9 hPa | 0 mm | 1.34 m/s, 49° | 125 W/m² | - |
| 1787675228 | 23.33° C | 42% | 1017.9 hPa | 0 mm | 0.45 m/s, 22° | 128 W/m² | - |
| 1787675168 | 23.33° C | 41% | 1017.9 hPa | 0 mm | 0.89 m/s, 46° | 130 W/m² | - |
| 1787675107 | 23.33° C | 43% | 1017.8 hPa | 0 mm | 0 m/s | 132 W/m² | - |
| 1787675048 | 23.33° C | 43% | 1017.8 hPa | 0 mm | 0 m/s | 134 W/m² | - |
| 1787674987 | 23.33° C | 42% | 1018 hPa | 0 mm | 0.45 m/s, 28° | 137 W/m² | - |
| 1787674927 | 23.33° C | 42% | 1017.6 hPa | 0 mm | 0.45 m/s, 46° | 139 W/m² | - |
| 1787674868 | 23.33° C | 42% | 1018 hPa | 0 mm | 0.89 m/s, 61° | 141 W/m² | - |
* Rain latest hour (hover to see other rain measurements)
** Current wind speed in m/s (hover to see current wind gust speed)